Torna al catalogo

THORAD AGENA D DEB

LostSSO
NORAD 42519·DEBRIS·🇺🇸 United States

Lanciato Apr 8, 1970 da Vandenberg Space Force Base

Loading…

Prossimi Passaggi (prossime 24 ore)

TLE

ObsoletoSource: Space-Track

Epoca: Feb 28, 2016, 09:43 UTC

1 42519U 70025RZ  16059.40509506  .00000435  00000-0  46890-3 0  9997
2 42519  99.4908 128.7091 0020317 311.8612  48.0398 13.79161476620729

Traccia THORAD AGENA D DEB in tempo reale con AllMySat

Download on the App Store